Location: Aldenham
(51.6667°N, 0.3500°W)
Time: 17:52:25
(UTC+00:00)

Vanguard 1 Rocket - Visible Passes

Search period start: 18 February 2026 00:00
Search period end: 28 February 2026 00:00
Orbit: 652 x 4215 km, 34.3° (Epoch: 18 February)

Date Brightness Start Highest point End Pass type
(mag) Time Alt. Az. Time Alt. Az. Time Alt. Az.
18 Feb 11.6 19:09:46 10° W 19:24:31 27° SSW 19:43:21 10° SSE visible
19 Feb 11.4 17:56:10 10° WSW 18:10:17 33° SSW 18:30:25 10° SSE visible
19 Feb 11.9 20:26:58 10° WSW 20:37:43 16° SW 20:49:55 10° SSW visible
20 Feb 11.7 19:10:47 10° WSW 19:23:51 23° SW 19:40:26 10° S visible
21 Feb 11.5 17:56:51 10° WSW 18:09:49 29° SSW 18:28:12 10° SSE visible
21 Feb 12.0 20:31:21 10° WSW 20:36:56 11° SW 20:42:55 10° SSW visible
22 Feb 11.9 19:12:22 10° WSW 19:23:14 18° SW 19:36:41 10° S visible
23 Feb 11.7 17:57:48 10° WSW 18:09:24 24° SSW 18:25:31 10° SSE visible
24 Feb 12.0 19:15:14 10° WSW 19:22:42 13° SW 19:31:25 10° SSW visible
25 Feb 11.9 17:59:12 10° WSW 18:09:02 19° SSW 18:22:10 10° S visible
27 Feb 12.0 18:01:33 10° WSW 18:08:46 14° SW 18:17:41 10° S visible
